DW6455 Weather Reports


Display with metric or nautical units.
time (UTC)temp
F
wind
direction
speed
MPH
gust
MPH
rain 1hr
in
rain 24hr
in
rain mn
in
humidity
%
barometer
mb
20260901014521 60 0.0 0.0 0.00 0.01 0.00 1 1005.5
20260901013522 60 0.0 0.0 0.00 0.01 0.00 1 1005.5
20260901012522 60 0.0 0.0 0.00 0.01 0.00 1 1005.5
20260901011522 60 0.0 0.0 0.00 0.01 0.00 1 1005.5
20260901010522 60 0.0 0.0 0.00 0.01 0.00 1 1005.6
20260901005522 60 0.0 0.0 0.00 0.01 0.00 1 1005.5
20260901004522 60 0.0 0.0 0.00 0.01 0.00 1 1005.6
20260901003537 60 0.0 0.0 0.00 0.01 0.00 1 1005.7
20260901002522 60 0.0 0.0 0.00 0.01 0.00 1 1005.7
20260901001522 60 0.0 0.0 0.00 0.01 0.00 1 1005.7
20260901000522 60 0.0 3.0 0.00 0.01 0.00 1 1005.8
20260831235522 61 0.0 4.0 0.00 0.01 0.00 1 1005.7
20260831234542 61 0.0 0.0 0.00 0.01 0.00 1 1005.7
20260831204522 62 0.0 3.0 0.00 0.01 0.01 1 1004.9
20260831203522 63 0.0 0.0 0.00 0.01 0.01 1 1004.8
20260831202522 63 0.0 0.0 0.00 0.01 0.01 1 1004.7
20260831201522 63 0.0 0.0 0.00 0.01 0.01 1 1004.6
20260831200522 63 0.0 0.0 0.00 0.01 0.01 1 1004.7
20260831195520 63 0.0 0.0 0.00 0.01 0.01 1 1004.6
20260831194522 63 0.0 1.0 0.00 0.01 0.01 1 1004.5
20260831193522 63 0.0 0.0 0.00 0.01 0.01 1 1004.4
20260831192522 63 0.0 3.0 0.00 0.01 0.01 1 1004.4
20260831191522 63 0.0 0.0 0.00 0.01 0.01 1 1004.1
20260831190522 64 0.0 0.0 0.00 0.01 0.01 1 1004.1
20260831185522 64 0.0 0.0 0.00 0.01 0.01 1 1004.1
20260831184542 64 0.0 0.0 0.00 0.01 0.01 1 1004.2
20260831174522 64 0.0 1.0 0.00 0.01 0.01 1 1003.8
20260831173522 63 0.0 0.0 0.00 0.01 0.01 1 1003.7
20260831172522 64 0.0 0.0 0.00 0.01 0.01 1 1003.6
20260831171522 64 0.0 0.0 0.00 0.01 0.01 1 1003.6
20260831170522 64 0.0 0.0 0.00 0.01 0.01 1 1003.5
20260831165522 64 0.0 0.0 0.00 0.01 0.01 1 1003.5
20260831164522 65 0.0 0.0 0.00 0.01 0.01 1 1003.4
20260831163522 65 0.0 0.0 0.00 0.01 0.01 1 1003.5
20260831162522 65 0.0 0.0 0.00 0.01 0.01 1 1003.3
20260831161522 65 0.0 0.0 0.00 0.01 0.01 1 1003.3
20260831160522 65 0.0 0.0 0.00 0.01 0.01 1 1003.2
20260831155522 65 0.0 0.0 0.00 0.01 0.01 1 1003.2
20260831154522 65 0.0 0.0 0.00 0.01 0.01 1 1003.1
20260831153522 65 0.0 0.0 0.00 0.01 0.01 1 1003.0
20260831152522 65 0.0 0.0 0.00 0.01 0.01 1 1003.0
20260831151522 65 0.0 0.0 0.00 0.01 0.01 1 1003.0
20260831150522 65 0.0 0.0 0.00 0.01 0.01 1 1003.0
20260831145522 66 0.0 0.0 0.00 0.01 0.01 1 1003.1
20260831144522 66 0.0 0.0 0.00 0.01 0.01 1 1003.1
20260831143522 66 0.0 0.0 0.00 0.01 0.01 1 1003.0
20260831142522 66 0.0 0.0 0.00 0.01 0.01 1 1003.1
20260831141522 66 0.0 0.0 0.00 0.01 0.01 1 1003.1
20260831140522 66 0.0 0.0 0.00 0.01 0.01 1 1003.2
20260831135522 66 0.0 0.0 0.00 0.01 0.01 1 1003.2
20260831134521 66 0.0 0.0 0.00 0.01 0.01 1 1003.2
20260831133521 66 0.0 0.0 0.00 0.01 0.01 1 1003.2
20260831132522 65 0.0 0.0 0.00 0.01 0.01 1 1003.1
20260831131522 65 0.0 0.0 0.00 0.01 0.01 1 1003.1
20260831130522 65 0.0 0.0 0.00 0.01 0.01 1 1003.2
20260831125522 65 0.0 0.0 0.00 0.01 0.01 1 1003.1
20260831124522 66 0.0 0.0 0.00 0.01 0.01 1 1003.1
20260831123523 66 0.0 0.0 0.00 0.01 0.01 1 1003.0
20260831122522 66 0.0 0.0 0.00 0.01 0.01 1 1003.1
20260831121522 66 0.0 0.0 0.00 0.01 0.01 1 1003.1
20260831120522 65 0.0 0.0 0.00 0.01 0.01 1 1003.2
20260831115520 65 0.0 0.0 0.00 0.01 0.01 1 1003.2
20260831114522 64 0.0 0.0 0.00 0.01 0.01 1 1003.3
20260831113522 64 0.0 0.0 0.00 0.01 0.01 1 1003.4
20260831112522 64 158 1.0 5.0 0.00 0.01 0.01 1 1003.4
20260831111522 64 135 4.0 9.0 0.01 0.01 0.01 1 1003.4
20260831110522 65 135 2.0 7.0 0.01 0.01 0.01 7 1003.4
20260831105522 65 158 2.0 6.0 0.01 0.01 0.01 8 1003.4
20260831104522 66 135 1.0 5.0 0.01 0.01 0.01 1 1003.5
20260831103522 66 135 3.0 8.0 0.01 0.01 0.01 1 1003.4
20260831102522 65 158 3.0 7.0 0.01 0.01 0.01 1 1003.4
20260831101522 65 135 2.0 6.0 0.00 0.00 0.00 1 1003.5
20260831100522 66 135 2.0 6.0 0.00 0.00 0.00 1 1003.5
20260831095523 65 135 2.0 8.0 0.00 0.00 0.00 1 1003.6
20260831094522 64 158 1.0 4.0 0.00 0.00 0.00 1 1003.7
20260831093522 64 135 2.0 4.0 0.00 0.00 0.00 1 1003.5
20260831092522 64 113 3.0 7.0 0.00 0.00 0.00 1 1003.6
20260831091522 64 135 2.0 5.0 0.00 0.00 0.00 1 1003.6
20260831090522 64 113 3.0 9.0 0.00 0.00 0.00 1 1003.6
20260831085522 64 113 1.0 5.0 0.00 0.00 0.00 1 1003.6
20260831084522 64 158 2.0 7.0 0.00 0.00 0.00 1 1003.7
20260831083522 64 135 2.0 8.0 0.00 0.00 0.00 1 1003.7
20260831082522 64 135 3.0 7.0 0.00 0.00 0.00 1 1003.9
20260831081542 64 135 1.0 4.0 0.00 0.00 0.00 1 1003.9
20260831061522 62 135 4.0 8.0 0.00 0.00 0.00 1 1004.2
20260831060522 62 180 3.0 9.0 0.00 0.00 0.00 1 1004.3
20260831055522 62 135 2.0 9.0 0.00 0.00 0.00 1 1004.3
20260831054522 62 158 2.0 8.0 0.00 0.00 0.00 1 1004.2
20260831053522 62 158 2.0 5.0 0.00 0.00 0.00 1 1004.3
20260831052522 62 135 3.0 8.0 0.00 0.00 0.00 1 1004.4
20260831051521 62 158 2.0 8.0 0.00 0.00 0.00 1 1004.4
20260831050522 61 158 3.0 7.0 0.00 0.00 0.00 1 1004.5
20260831045522 61 135 3.0 8.0 0.00 0.00 0.00 1 1004.5
20260831044522 61 135 4.0 9.0 0.00 0.00 0.00 1 1004.6
20260831043522 61 135 4.0 9.0 0.00 0.00 0.00 1 1004.7
20260831042522 61 135 4.0 9.0 0.00 0.00 0.00 1 1004.8
20260831041522 61 158 4.0 9.0 0.00 0.00 0.00 1 1004.9
20260831040542 61 158 2.0 6.0 0.00 0.00 0.00 1 1004.9
20260831030520 61 158 4.0 8.0 0.00 0.00 0.00 1 1005.2
20260831025520 61 158 3.0 9.0 0.00 0.00 0.00 1 1005.2
20260831024520 61 158 4.0 8.0 0.00 0.00 0.00 1 1005.3
20260831023520 61 135 5.0 10.0 0.00 0.00 0.00 1 1005.3
20260831022520 61 135 5.0 9.0 0.00 0.00 0.00 1 1005.3
20260831021520 61 158 4.0 10.0 0.00 0.00 0.00 1 1005.3
20260831020540 60 135 6.0 12.0 0.00 0.00 0.00 1 1005.4